Powrót do katalogu

STARLINK-4140

AktywnyŁącznośćVLEO
NORAD 53259·PAYLOAD·🇺🇸 United States

Wystrzelony Jul 24, 2022 z Cape Canaveral Space Force Station

Loading…

Następne Przeloty (najbliższe 24 godziny)

TLE

ŚwieżeSource: CelesTrak SupGP

Epoka: Sep 15, 2026, 01:11 UTC

1 53259C 22086T   26258.04979167 -.00045434  00000+0 -14612-2 0  2583
2 53259  53.1608  59.1759 0000999  78.8837 260.9086 15.31722281    17

Śledź STARLINK-4140 w czasie rzeczywistym z AllMySat

Download on the App Store